User: anonymous   Login
Location: Thompson
(55.7500°N, 97.8670°W)
Time: 15:06:13
(UTC-05:00)
Language:

Cosmos 1833 Rocket - Orbit

View from above orbital plane
View from above orbital plane
View from above satellite
View from above satellite

Ground track
Ground track

The orbit data is extracted from the following two-line orbital elements,

1 17590U 87027B   18171.90170769 +.00000074 +00000-0 +61011-4 0  9997
2 17590 071.0035 093.5437 0002974 109.8617 250.2827 14.16757159616112
Epoch (UTC): 20 June 2018 21:38:27
Eccentricity: 0.0002974
inclination: 71.0035°
perigee height: 834 km
apogee height: 838 km
right ascension of ascending node: 93.5437°
argument of perigee: 109.8617°
revolutions per day: 14.16757159
mean anomaly at epoch: 250.2827°
orbit number at epoch: 61611

The dashed part of the orbit path shows where the satellite is in the earth's shadow,  

DLR